TimeCDT,TemperatureF,Dew PointF,Humidity,Sea Level PressureIn,VisibilityMPH,Wind Direction,Wind SpeedMPH,Gust SpeedMPH,PrecipitationIn,Events,Conditions,WindDirDegrees,DateUTC
12:15 AM,65.3,62.4,90,30.05,7.0,West,4.6,-,N/A,Rain,Light Rain,270,2013-05-03 05:15:00
12:35 AM,62.6,59.9,91,30.04,7.0,WNW,6.9,-,N/A,,Light Drizzle,290,2013-05-03 05:35:00
12:55 AM,60.6,57.9,91,30.03,5.0,WNW,16.1,-,N/A,,Overcast,290,2013-05-03 05:55:00
1:15 AM,59.7,57.2,91,30.02,7.0,NW,8.1,-,N/A,Rain,Light Rain,310,2013-05-03 06:15:00
1:35 AM,59.2,57.2,93,30.01,5.0,NW,8.1,-,N/A,,Overcast,310,2013-05-03 06:35:00
1:55 AM,59.0,56.7,92,30.01,5.0,NW,5.8,-,N/A,,Overcast,310,2013-05-03 06:55:00
2:15 AM,58.6,56.5,93,30.00,5.0,NW,4.6,-,N/A,,Mostly Cloudy,320,2013-05-03 07:15:00
2:35 AM,58.5,56.5,93,30.00,5.0,Calm,Calm,-,N/A,,Mostly Cloudy,0,2013-05-03 07:35:00
2:55 AM,58.3,56.3,93,29.99,5.0,Calm,Calm,-,N/A,,Mostly Cloudy,0,2013-05-03 07:55:00
3:15 AM,58.3,56.3,93,29.98,5.0,Calm,Calm,-,N/A,,Overcast,0,2013-05-03 08:15:00
3:35 AM,58.5,56.5,93,29.98,5.0,Calm,Calm,-,N/A,,Overcast,0,2013-05-03 08:35:00
3:55 AM,58.5,56.7,94,29.98,4.0,Calm,Calm,-,N/A,,Overcast,0,2013-05-03 08:55:00
4:15 AM,58.6,56.8,94,29.97,4.0,Calm,Calm,-,N/A,,Overcast,0,2013-05-03 09:15:00
4:35 AM,59.2,57.4,94,29.97,4.0,Calm,Calm,-,N/A,,Overcast,0,2013-05-03 09:35:00
4:55 AM,59.4,57.7,94,29.97,3.0,Calm,Calm,-,N/A,,Overcast,0,2013-05-03 09:55:00
5:15 AM,59.5,58.1,95,29.97,3.0,NE,3.5,-,N/A,,Overcast,50,2013-05-03 10:15:00
5:35 AM,60.1,58.6,95,29.97,2.5,Calm,Calm,-,N/A,Rain,Light Rain,0,2013-05-03 10:35:00
5:55 AM,60.8,59.4,95,29.97,2.0,Calm,Calm,-,N/A,,Overcast,0,2013-05-03 10:55:00
6:15 AM,61.7,60.4,96,29.97,0.2,East,3.5,-,N/A,Fog,Fog,100,2013-05-03 11:15:00
6:35 AM,62.1,60.8,96,29.97,0.5,ESE,4.6,-,N/A,Rain,Light Rain,120,2013-05-03 11:35:00
6:55 AM,62.2,61.0,96,29.96,2.0,ESE,6.9,-,N/A,,Mostly Cloudy,120,2013-05-03 11:55:00
7:15 AM,62.8,61.3,95,29.96,5.0,ESE,6.9,-,N/A,,Clear,120,2013-05-03 12:15:00
7:35 AM,63.7,61.7,93,29.96,5.0,ESE,6.9,-,N/A,,Clear,110,2013-05-03 12:35:00
7:55 AM,64.8,61.7,90,29.96,7.0,ESE,9.2,-,N/A,,Clear,120,2013-05-03 12:55:00
8:15 AM,65.5,60.6,84,29.95,10.0,SE,13.8,-,N/A,,Mostly Cloudy,130,2013-05-03 13:15:00
8:35 AM,66.2,59.9,80,29.95,10.0,SE,16.1,-,N/A,,Overcast,130,2013-05-03 13:35:00
8:55 AM,66.2,59.4,79,29.95,10.0,SE,13.8,-,N/A,,Overcast,140,2013-05-03 13:55:00
9:15 AM,66.4,59.0,77,29.94,10.0,SE,18.4,-,N/A,,Mostly Cloudy,140,2013-05-03 14:15:00
9:35 AM,66.2,59.0,78,29.94,10.0,SE,15.0,-,N/A,,Mostly Cloudy,130,2013-05-03 14:35:00
9:55 AM,67.3,59.4,76,29.93,10.0,SE,15.0,-,N/A,,Mostly Cloudy,140,2013-05-03 14:55:00
10:15 AM,68.5,58.5,70,29.93,10.0,SE,19.6,24.2,N/A,,Scattered Clouds,140,2013-05-03 15:15:00
10:35 AM,69.1,57.9,68,29.92,7.0,SE,21.9,26.5,N/A,,Clear,140,2013-05-03 15:35:00
10:55 AM,70.0,58.1,66,29.92,10.0,SSE,20.7,24.2,N/A,,Scattered Clouds,150,2013-05-03 15:55:00
11:15 AM,71.2,58.1,63,29.92,10.0,SE,17.3,23.0,N/A,,Mostly Cloudy,140,2013-05-03 16:15:00
11:35 AM,71.2,57.2,61,29.91,7.0,SE,20.7,26.5,N/A,,Mostly Cloudy,140,2013-05-03 16:35:00
11:55 AM,72.3,57.2,59,29.90,10.0,SSE,24.2,28.8,N/A,,Scattered Clouds,150,2013-05-03 16:55:00
12:15 PM,72.9,57.6,59,29.89,10.0,SE,19.6,25.3,N/A,,Mostly Cloudy,140,2013-05-03 17:15:00
12:35 PM,71.6,57.0,60,29.89,10.0,SE,19.6,-,N/A,,Overcast,130,2013-05-03 17:35:00
12:55 PM,72.5,57.7,60,29.88,10.0,SE,18.4,-,N/A,,Mostly Cloudy,140,2013-05-03 17:55:00
1:15 PM,73.0,57.9,59,29.87,10.0,SE,17.3,20.7,N/A,,Mostly Cloudy,140,2013-05-03 18:15:00
1:35 PM,73.4,58.1,59,29.87,10.0,SE,18.4,25.3,N/A,,Overcast,140,2013-05-03 18:35:00
1:55 PM,73.8,57.2,56,29.86,10.0,SE,23.0,26.5,N/A,,Mostly Cloudy,130,2013-05-03 18:55:00
2:15 PM,74.5,56.1,53,29.85,10.0,SE,25.3,31.1,N/A,,Mostly Cloudy,140,2013-05-03 19:15:00
2:35 PM,75.2,56.5,52,29.84,10.0,SE,18.4,28.8,N/A,,Mostly Cloudy,130,2013-05-03 19:35:00
2:55 PM,75.2,57.7,54,29.84,10.0,ESE,18.4,-,N/A,,Mostly Cloudy,120,2013-05-03 19:55:00
3:15 PM,73.9,57.7,57,29.83,10.0,SE,20.7,24.2,N/A,Rain,Light Rain,140,2013-05-03 20:15:00
3:35 PM,72.3,60.6,67,29.82,10.0,SE,11.5,-,N/A,Rain,Light Rain,140,2013-05-03 20:35:00
3:55 PM,74.7,58.6,57,29.81,10.0,SE,15.0,19.6,N/A,,Mostly Cloudy,130,2013-05-03 20:55:00
4:15 PM,74.7,56.8,54,29.81,7.0,ESE,18.4,26.5,N/A,,Mostly Cloudy,120,2013-05-03 21:15:00
4:35 PM,75.2,56.5,52,29.80,10.0,ESE,21.9,26.5,N/A,,Mostly Cloudy,110,2013-05-03 21:35:00
4:55 PM,74.8,56.1,52,29.80,10.0,ESE,23.0,27.6,N/A,,Scattered Clouds,120,2013-05-03 21:55:00
5:15 PM,75.0,54.5,49,29.79,7.0,SE,26.5,32.2,N/A,,Scattered Clouds,130,2013-05-03 22:15:00
5:35 PM,74.7,54.7,50,29.79,10.0,ESE,19.6,31.1,N/A,,Clear,120,2013-05-03 22:35:00
5:55 PM,74.1,55.0,51,29.78,10.0,ESE,21.9,26.5,N/A,,Clear,120,2013-05-03 22:55:00
6:15 PM,74.3,54.7,50,29.78,10.0,ESE,17.3,28.8,N/A,,Scattered Clouds,120,2013-05-03 23:15:00
6:35 PM,74.3,53.8,49,29.78,10.0,ESE,19.6,23.0,N/A,,Clear,120,2013-05-03 23:35:00
6:55 PM,74.3,53.8,49,29.78,10.0,ESE,20.7,26.5,N/A,,Mostly Cloudy,120,2013-05-03 23:55:00
7:15 PM,74.1,54.3,50,29.78,10.0,ESE,16.1,-,N/A,,Mostly Cloudy,120,2013-05-04 00:15:00
7:35 PM,73.0,55.6,54,29.78,10.0,ESE,19.6,24.2,N/A,,Scattered Clouds,110,2013-05-04 00:35:00
7:55 PM,71.4,55.8,58,29.79,7.0,ESE,23.0,32.2,N/A,,Mostly Cloudy,120,2013-05-04 00:55:00
8:15 PM,68.9,57.4,67,29.80,10.0,ESE,20.7,27.6,N/A,,Mostly Cloudy,120,2013-05-04 01:15:00
8:35 PM,59.4,52.3,78,29.84,10.0,SW,23.0,31.1,N/A,Rain,Light Rain,230,2013-05-04 01:35:00
8:55 PM,55.8,52.2,88,29.85,10.0,WSW,10.4,-,N/A,,Mostly Cloudy,240,2013-05-04 01:55:00
9:15 PM,55.4,51.4,87,29.86,10.0,SW,10.4,-,N/A,,Overcast,230,2013-05-04 02:15:00
9:35 PM,55.4,51.1,85,29.87,10.0,SW,5.8,-,N/A,,Overcast,220,2013-05-04 02:35:00
9:55 PM,54.9,51.4,88,29.88,10.0,SSW,11.5,-,N/A,,Light Drizzle,210,2013-05-04 02:55:00
10:15 PM,54.0,51.3,91,29.88,10.0,SSW,8.1,-,N/A,Rain,Light Rain,210,2013-05-04 03:15:00
10:35 PM,54.0,51.6,92,29.87,10.0,Calm,Calm,-,N/A,,Light Drizzle,0,2013-05-04 03:35:00
10:55 PM,54.0,51.8,92,29.88,10.0,South,5.8,-,N/A,Rain,Rain,190,2013-05-04 03:55:00
11:15 PM,54.0,52.2,94,29.89,7.0,SSW,5.8,-,0.03,Rain,Rain,200,2013-05-04 04:15:00
11:35 PM,53.6,52.0,94,29.89,5.0,SW,9.2,-,0.09,Rain,Rain,220,2013-05-04 04:35:00
11:55 PM,52.2,50.4,94,29.89,7.0,SW,9.2,-,0.12,Rain,Rain,230,2013-05-04 04:55:00